Weather History for Sivas, Turkey

Change the Weather History Date:

Friday, October 26, 2012

  Actual Average Record
Temperature  
Mean Temperature 46 °F -  
Max Temperature 55 °F 53 °F - ()
Min Temperature 37 °F 33 °F - ()
Degree Days  
Heating Degree Days 19    
Moisture  
Dew Point 38 °F    
Average Humidity 77    
Maximum Humidity 100    
Minimum Humidity 51    
Precipitation  
Precipitation 0.00 in 0.05 in - ()
Sea Level Pressure  
Sea Level Pressure 29.97 in    
Wind  
Wind Speed 3 mph ()    
Max Wind Speed 12 mph    
Max Gust Speed -    
Visibility 6.4 miles    
Events      
T = Trace of Precipitation, MM = Missing Value Source: Averaged Metar Reports

Daily Weather History Graph

Daily Weather History Graph

Search for Another Location

Airport:

Trip Planner

Search our weather history database for the weather conditions in past years. The results will help you decide how hot, cold, wet, or windy it might be!

Date:

Astronomy

Oct. 26, 2012 Rise Set
Actual Time 6:54 AM EEST 5:37 PM EEST
Civil Twilight 6:26 AM EEST 6:05 PM EEST
Nautical Twilight 5:55 AM EEST 6:36 PM EEST
Astronomical Twilight 5:23 AM EEST 7:08 PM EEST
Moon 3:42 PM EEST (10/26) 3:30 AM EEST (10/26)
Length of Visible Light 11h 38m
Length of Day
10h 42m
Waxing Gibbous, 89% of the Moon is Illuminated
Oct 26
Waxing Gibbous
Oct 29
Full
Nov 7
Last Quarter
Nov 14
New
Nov 20
First Quarter

Hourly Weather History & Observations

Time (EEST) Temp. Windchill Dew Point Humidity Pressure Visibility Wind Dir Wind Speed Gust Speed Precip Events Conditions
12:50 AM 39.2 °F 37.0 °F 37.4 °F 93% 29.95 in 6.2 mi East 3.5 mph - N/A   Scattered Clouds
1:50 AM 39.2 °F 35.9 °F 37.4 °F 93% 29.92 in 6.2 mi ESE 4.6 mph - N/A   Scattered Clouds
2:50 AM 39.2 °F - 37.4 °F 93% 29.92 in 6.2 mi Calm Calm - N/A   Scattered Clouds
6:50 AM 37.4 °F - 37.4 °F 100% 29.95 in - Variable 2.3 mph - N/A   Clear
7:50 AM 35.6 °F - 35.6 °F 100% 29.95 in - Calm Calm - N/A   Clear
8:50 AM 46.4 °F - 41.0 °F 81% 29.95 in - Calm Calm - N/A   Clear
9:00 AM 45 °F - 38 °F 69%  in 9 mi Calm Calm - -  
9:50 AM 48.2 °F - 41.0 °F 76% 29.98 in 6.2 mi WNW 5.8 mph - N/A   Partly Cloudy
10:50 AM 50.0 °F - 41.0 °F 71% 29.98 in 6.2 mi West 3.5 mph - N/A   Scattered Clouds
11:50 AM 51.8 °F - 41.0 °F 67% 29.95 in 6.2 mi WSW 4.6 mph - N/A   Scattered Clouds
12:50 PM 55.4 °F - 39.2 °F 54% 29.95 in 6.2 mi Variable 4.6 mph - N/A   Scattered Clouds
1:50 PM 55.4 °F - 37.4 °F 51% 29.95 in 6.2 mi WNW 6.9 mph - N/A   Scattered Clouds
2:50 PM 53.6 °F - 39.2 °F 58% 29.95 in 6.2 mi NW 6.9 mph - N/A   Scattered Clouds
3:50 PM 53.6 °F - 39.2 °F 58% 29.95 in 6.2 mi NNW 10.4 mph - N/A   Scattered Clouds
4:50 PM 53.6 °F - 37.4 °F 54% 29.95 in 6.2 mi WNW 11.5 mph - N/A   Scattered Clouds
5:50 PM 50.0 °F - 37.4 °F 62% 29.98 in 6.2 mi NW 10.4 mph - N/A   Scattered Clouds
6:50 PM 44.6 °F 40.7 °F 39.2 °F 81% 29.98 in 6.2 mi NW 6.9 mph - N/A   Scattered Clouds
7:50 PM 44.6 °F 43.1 °F 39.2 °F 81% 30.01 in 6.2 mi NNE 3.5 mph - N/A   Scattered Clouds
8:50 PM 41.0 °F 39.0 °F 37.4 °F 87% 30.01 in - NNE 3.5 mph - N/A   Clear
9:50 PM 42.8 °F 40.1 °F 37.4 °F 81% 30.01 in - NNW 4.6 mph - N/A   Clear
10:50 PM 37.4 °F - 35.6 °F 93% 30.04 in - Calm Calm - N/A   Clear
11:50 PM 39.2 °F - 35.6 °F 87% 30.04 in - Calm Calm - N/A   Clear